TimeAST,TemperatureF,Dew PointF,Humidity,Sea Level PressureIn,VisibilityMPH,Wind Direction,Wind SpeedMPH,Gust SpeedMPH,PrecipitationIn,Events,Conditions,WindDirDegrees,DateUTC
12:00 AM,32.0,19.4,60,30.31,15.0,NNW,17.3,29.9,N/A,,Mostly Cloudy,340,2013-11-21 04:00:00
1:00 AM,30.2,17.6,60,30.32,15.0,NW,19.6,32.2,N/A,,Mostly Cloudy,320,2013-11-21 05:00:00
2:00 AM,30,17,45,30.33,15,NNW,18.4,,,,Mostly Cloudy,330,2013-11-21 06:00:00
2:00 AM,30.2,17.6,60,30.32,15.0,NNW,18.4,33.4,N/A,,Mostly Cloudy,330,2013-11-21 06:00:00
3:00 AM,30.2,17.6,60,30.33,15.0,NW,21.9,34.5,N/A,,Scattered Clouds,320,2013-11-21 07:00:00
4:01 AM,30.2,17.6,60,30.32,15.0,NW,25.3,34.5,N/A,,Scattered Clouds,320,2013-11-21 08:01:00
5:00 AM,30.2,19.4,64,30.32,15.0,NW,20.7,28.8,N/A,,Scattered Clouds,310,2013-11-21 09:00:00
6:00 AM,30.2,19.4,64,30.31,15.0,NW,19.6,28.8,N/A,,Clear,320,2013-11-21 10:00:00
7:00 AM,30.2,21.2,69,30.32,15.0,NW,17.3,29.9,N/A,,Clear,320,2013-11-21 11:00:00
8:00 AM,32,19,45,30.32,15,NW,19.6,,,,Clear,320,2013-11-21 12:00:00
8:00 AM,32.0,19.4,60,30.32,15.0,NW,20.7,31.1,N/A,,Partly Cloudy,320,2013-11-21 12:00:00
9:00 AM,33.8,19.4,56,30.32,15.0,NW,18.4,29.9,N/A,,Partly Cloudy,320,2013-11-21 13:00:00
10:00 AM,33.8,23.0,65,30.32,15.0,NW,15.0,33.4,N/A,,Partly Cloudy,310,2013-11-21 14:00:00
11:00 AM,35.6,24.8,65,30.30,15.0,NW,15.0,29.9,N/A,,Partly Cloudy,310,2013-11-21 15:00:00
12:00 PM,35.6,23.0,60,30.27,15.0,NW,17.3,28.8,N/A,,Partly Cloudy,310,2013-11-21 16:00:00
1:00 PM,37.4,23.0,56,30.26,15.0,WNW,17.3,27.6,N/A,,Partly Cloudy,300,2013-11-21 17:00:00
2:00 PM,38,25,48,30.25,15,NW,18.4,,,,Scattered Clouds,310,2013-11-21 18:00:00
2:00 PM,37.4,24.8,60,30.25,15.0,NW,18.4,32.2,N/A,,Partly Cloudy,310,2013-11-21 18:00:00
3:00 PM,39.2,24.8,56,30.25,15.0,NW,17.3,25.3,N/A,,Partly Cloudy,320,2013-11-21 19:00:00
4:00 PM,37.4,24.8,60,30.26,15.0,NW,12.7,21.9,N/A,,Partly Cloudy,320,2013-11-21 20:00:00
5:00 PM,37.4,26.6,65,30.26,15.0,NW,10.4,-,N/A,,Partly Cloudy,320,2013-11-21 21:00:00
6:00 PM,37.4,28.4,70,30.26,15.0,NW,8.1,20.7,N/A,,Partly Cloudy,320,2013-11-21 22:00:00
7:00 PM,37.4,28.4,70,30.25,15.0,NW,10.4,17.3,N/A,,Partly Cloudy,320,2013-11-21 23:00:00
8:00 PM,39,31,63,30.25,15,NW,13.8,,,,,320,2013-11-22 00:00:00
8:00 PM,39.2,30.2,70,30.25,15.0,NW,15.0,-,N/A,,Clear,320,2013-11-22 00:00:00
9:00 PM,39.2,32.0,75,30.25,15.0,NNW,11.5,19.6,N/A,,Clear,340,2013-11-22 01:00:00
10:00 PM,39.2,33.8,81,30.26,15.0,NNW,6.9,-,N/A,,Clear,330,2013-11-22 02:00:00
11:00 PM,37.4,33.8,87,30.25,15.0,North,9.2,-,N/A,,Clear,350,2013-11-22 03:00:00